Location: Unspecified
(0.0000°N, 0.0000°E)
Time: 22:08:12
(UTC+00:00)

Altair 2 - Visible Passes

Search period start: 29 April 2025 00:00
Search period end: 09 May 2025 00:00
Orbit: 829 x 955 km, 79.9° (Epoch: 29 April)

Date Brightness Start Highest point End Pass type
(mag) Time Alt. Az. Time Alt. Az. Time Alt. Az.
30 Apr 8.0 20:22:54 15° N 20:22:54 15° N 20:23:49 10° N visible
01 May 7.3 20:21:15 30° N 20:21:15 30° N 20:24:10 10° N visible
02 May 6.3 20:18:32 59° W 20:18:32 59° W 20:24:27 10° N visible
03 May 7.5 18:32:30 10° ESE 18:35:07 13° E 18:37:42 10° ENE visible
03 May 6.8 20:12:56 10° SSW 20:18:50 47° W 20:24:40 10° NNW visible
04 May 7.3 18:31:48 10° SE 18:35:30 16° E 18:39:09 10° ENE visible
04 May 7.2 20:13:33 10° SSW 20:19:13 38° W 20:24:47 10° NNW visible
05 May 7.1 18:31:27 10° SE 18:35:53 21° E 18:40:16 10° NE visible
05 May 7.6 20:14:16 10° SW 20:19:35 31° W 20:24:50 10° NNW visible
06 May 6.8 18:31:18 10° SSE 18:36:17 26° E 18:41:10 10° NE visible
06 May 7.9 20:15:05 10° SW 20:19:58 25° W 20:24:46 10° NNW visible
07 May 6.6 18:31:17 10° SSE 18:36:40 32° E 18:41:56 10° NE visible
07 May 8.3 20:16:02 10° SW 20:20:19 20° W 20:24:34 10° NW visible
08 May 6.3 18:31:21 10° SSE 18:37:03 39° E 18:42:37 10° NNE visible
08 May 8.6 20:17:12 10° WSW 20:20:41 16° W 20:24:09 10° NW visible
